User: anonymous   Login
Location: Unspecified
(0.0000°N, 0.0000°E)
Time: 15:21:22
(UTC+01:00)
Language:

Iridium 4 Rocket - Orbit

View from above orbital plane
View from above orbital plane
View from above satellite
View from above satellite

Ground track
Ground track

The orbit data is extracted from the following two-line orbital elements,

1 24797U 97020F   14330.58256520  .00000590  00000-0  12238-3 0  8285
2 24797 086.8943 335.1298 0227562 188.4575 318.5001 14.43307958923244
Epoch (UTC): 26 November 2014 13:58:53
Eccentricity: 0.0227562
inclination: 86.8943°
perigee height: 585 km
apogee height: 910 km
right ascension of ascending node: 335.1298°
argument of perigee: 188.4575°
revolutions per day: 14.43307958
mean anomaly at epoch: 318.5001°
orbit number at epoch: 92324

The dashed part of the orbit path shows where the satellite is in the earth's shadow,  

DLR